Weather History for Livingston, MT

Change the Weather History Date:

Tuesday, March 12, 2013

  Actual Average Record
Temperature  
Mean Temperature 30 °F 35 °F  
Max Temperature 51 °F 47 °F 71 °F (2007)
Min Temperature 10 °F 23 °F -12 °F (1950)
Degree Days  
Heating Degree Days 34 30  
Month to date heating degree days 379  
Since 1 July heating degree days 5727  
Cooling Degree Days 0 0  
Month to date cooling degree days 0  
Year to date cooling degree days 0  
Moisture  
Dew Point 16 °F    
Average Humidity 53    
Maximum Humidity 84    
Minimum Humidity 25    
Precipitation  
Precipitation 0.00 in 0.02 in 0.43 in (1957)
Month to date precipitation 0.25  
Year to date precipitation 1.24  
Sea Level Pressure  
Sea Level Pressure 30.21 in    
Wind  
Wind Speed 10 mph (WSW)    
Max Wind Speed 34 mph    
Max Gust Speed 50 mph    
Visibility 10 miles    
Events      
T = Trace of Precipitation, MM = Missing Value Source: NWS Daily Summary

Daily Weather History Graph

Daily Weather History Graph

Search for Another Location

Airport:

Trip Planner

Search our weather history database for the weather conditions in past years. The results will help you decide how hot, cold, wet, or windy it might be!

Date:

Astronomy

Mar. 12, 2013 Rise Set
Actual Time 7:39 AM MDT 7:24 PM MDT
Civil Twilight 7:09 AM MDT 7:53 PM MDT
Nautical Twilight 6:35 AM MDT 8:28 PM MDT
Astronomical Twilight 6:00 AM MDT 9:03 PM MDT
Moon 7:43 AM MDT (3/12) 8:49 PM MDT (3/12)
Length of Visible Light 12h 43m
Length of Day
11h 44m
New Moon, 1% of the Moon is Illuminated
Mar 12
New Moon
Mar 19
First Quarter
Mar 27
Full
Apr 2
Last Quarter
Apr 10
New

Hourly Weather History & Observations

Time (MDT) Temp. Windchill Dew Point Humidity Pressure Visibility Wind Dir Wind Speed Gust Speed Precip Events Conditions
12:53 AM 14.0 °F 8.2 °F 8.1 °F 77% 30.35 in 10.0 mi WSW 3.5 mph - N/A   Clear
1:53 AM 12.0 °F - 7.0 °F 80% 30.35 in 10.0 mi Calm Calm - N/A   Clear
2:53 AM 10.0 °F - 6.1 °F 84% 30.35 in - Calm Calm - N/A   Clear
3:53 AM 12.0 °F - 6.1 °F 77% 30.34 in 10.0 mi Calm Calm - N/A   Clear
4:53 AM 14.0 °F 8.2 °F 9.0 °F 80% 30.33 in - NW 3.5 mph - N/A   Mostly Cloudy
5:53 AM 16.0 °F - 10.9 °F 81% 30.33 in 10.0 mi Calm Calm - N/A   Overcast
6:53 AM 17.1 °F - 12.0 °F 81% 30.33 in 10.0 mi Calm Calm - N/A   Overcast
7:53 AM 19.0 °F - 12.9 °F 77% 30.34 in 10.0 mi Calm Calm - N/A   Overcast
8:53 AM 21.9 °F - 16.0 °F 78% 30.32 in 10.0 mi Calm Calm - N/A   Overcast
9:53 AM 28.0 °F 18.1 °F 17.1 °F 63% 30.30 in 10.0 mi NNW 11.5 mph - N/A   Overcast
10:53 AM 32.0 °F 22.5 °F 16.0 °F 52% 30.27 in 10.0 mi NNW 12.7 mph - N/A   Overcast
11:53 AM 42.1 °F 34.5 °F 12.9 °F 31% 30.22 in 10.0 mi West 15.0 mph 24.2 mph N/A   Overcast
12:53 PM 50.0 °F - 15.1 °F 25% 30.18 in 10.0 mi WSW 19.6 mph 29.9 mph N/A   Overcast
1:53 PM 46.9 °F - 16.0 °F 29% 30.17 in 10.0 mi SW 23.0 mph 29.9 mph N/A   Scattered Clouds
2:53 PM 50.0 °F - 19.0 °F 29% 30.15 in 10.0 mi WSW 19.6 mph 31.1 mph N/A   Overcast
3:53 PM 50.0 °F - 21.0 °F 32% 30.12 in 10.0 mi WSW 23.0 mph - N/A   Overcast
4:53 PM 50.0 °F - 21.0 °F 32% 30.11 in 10.0 mi SW 21.9 mph 33.4 mph N/A   Overcast
5:53 PM 51.1 °F - 23.0 °F 33% 30.09 in 10.0 mi SW 28.8 mph 35.7 mph N/A   Scattered Clouds
6:53 PM 48.9 °F - 23.0 °F 36% 30.08 in 10.0 mi WSW 26.5 mph 38.0 mph N/A   Mostly Cloudy
7:53 PM 48.0 °F - 23.0 °F 37% 30.08 in 10.0 mi WSW 27.6 mph 33.4 mph N/A   Mostly Cloudy
8:53 PM 46.0 °F 36.1 °F 23.0 °F 40% 30.07 in 10.0 mi SW 34.5 mph 46.0 mph N/A   Clear
9:53 PM 46.0 °F 37.2 °F 23.0 °F 40% 30.06 in 10.0 mi WSW 26.5 mph 49.5 mph N/A   Clear
10:53 PM 46.0 °F 36.9 °F 23.0 °F 40% 30.08 in 10.0 mi SW 28.8 mph 38.0 mph N/A   Clear
11:53 PM 46.9 °F - 24.1 °F 41% 30.04 in 10.0 mi SW 28.8 mph 46.0 mph N/A   Clear